Voltar ao catálogo

CZ-6A DEB

AtivoSSO
NORAD 54446·DEBRIS·🇨🇳 China

Lançado Nov 11, 2022 de Taiyuan Satellite Launch Center

Loading…

Próximas Passagens (próximas 24 horas)

TLE

AtualizadoSource: Space-Track

Época: Sep 14, 2026, 06:04 UTC

1 54446U 22151FW  26257.25302512  .00001316  00000-0  10933-2 0  9995
2 54446  98.8323 180.4925 0205835 287.2975  70.5754 13.81117552192611

Acompanhe CZ-6A DEB em tempo real com AllMySat

Download on the App Store